SPARTAN (48964 NORAD) Tracking and Keplerian Element Data

This shows tracking and keplerian element data for the satellite.

Feedback or suggestion? Click here.




ElementValue
Catalog48964
NameSPARTAN
Epoch Orbit1388
Epoch Day268.61364045
Epoch Year2021
RAAN36.1045
Inclination97.5155
Eccentricity0.0006653
Argument of Perigee296.5468
Mean Anonmoly63.5081
Mean Motion15.13441537
Decay Rate1.236E-05
L11 48964U 21059CP 21268.61364045 .00001236 00000-0 72780-4 0 9996
L22 48964 97.5155 36.1045 0006653 296.5468 63.5081 15.13441537 13881

Live tracking and technical data element details for SPARTAN (NORAD 48964). SPARTAN can be tracked NOW for your location showing map with azimuth and elevation plus other details from your city location.

Track the satellite on the map from your city or location and see movement details for azimuth, elevation, latitude, longitude, range, height, and movement on the map or in text.







IsCatalogInMostPopularTable: catalog: 48964, numindb: 15
Update: records affected: 1



GetName: 48964 SPARTAN

Hit Count: updated at: Sun, 26 Sep 2021 15:01:59 GMT